Location: Milton
(43.5183°N, 79.8775°W)
Time: 11:59:26
(UTC+00:00)

COSMOS 2251 DEB - Visible Passes

Search period start: 30 November 2023 00:00
Search period end: 10 December 2023 00:00
Orbit: 642 x 770 km, 74.1° (Epoch: 29 November)

Date Brightness Start Highest point End Pass type
(mag) Time Alt. Az. Time Alt. Az. Time Alt. Az.
01 Dec ? 11:58:00 10° N 12:02:08 24° ENE 12:06:08 10° ESE visible
02 Dec ? 11:04:29 10° NNE 11:05:50 11° NE 11:07:11 10° ENE visible
03 Dec ? 11:47:18 10° N 11:51:47 29° ENE 11:56:05 10° ESE visible
04 Dec ? 10:53:02 10° NNE 10:55:33 14° NE 10:58:01 10° E visible
05 Dec ? 11:36:36 10° N 11:41:19 36° ENE 11:45:51 10° SE visible
06 Dec ? 10:41:55 10° NNE 10:45:09 17° NE 10:48:18 10° E visible
07 Dec ? 11:25:51 10° N 11:30:44 46° ENE 11:35:26 10° SE visible
08 Dec ? 10:30:53 10° N 10:34:38 20° NE 10:38:16 10° ESE visible
09 Dec ? 11:15:04 10° NNW 11:20:04 59° ENE 11:24:50 10° SSE visible
